EW6338 Weather Reports


Display with metric or nautical units.
time (UTC)temp
F
wind
direction
speed
MPH
gust
MPH
rain 1hr
in
rain 24hr
in
rain mn
in
humidity
%
barometer
mb
20260905093020 60 18 0.0 0.0 0.00 0.00 0.00 94 1006.9
20260905091520 60 18 0.0 0.0 0.00 0.00 0.00 94 1006.8
20260905090022 60 18 0.0 0.0 0.00 0.00 0.00 93 1006.7
20260905084546 60 18 0.0 0.0 0.00 0.00 0.00 93 1006.7
20260905083020 61 18 0.0 0.0 0.00 0.00 0.00 92 1006.7
20260905081516 61 18 0.0 0.0 0.00 0.00 0.00 92 1006.6
20260905080013 61 18 0.0 0.0 0.00 0.00 0.00 91 1006.7
20260905074511 62 18 0.0 0.0 0.00 0.00 0.00 90 1006.5
20260905073015 62 18 0.0 0.0 0.00 0.00 0.00 90 1006.7
20260905071507 63 233 0.0 0.0 0.00 0.00 0.00 90 1006.7
20260905070005 63 233 0.0 0.0 0.00 0.00 0.00 89 1006.8
20260905064503 64 233 0.0 0.0 0.00 0.00 0.00 88 1007.0
20260905063005 64 129 0.0 0.0 0.00 0.00 0.00 88 1007.0
20260905061503 64 143 0.0 0.0 0.00 0.00 0.00 88 1007.1
20260905060002 64 143 0.0 0.0 0.00 0.00 0.00 88 1007.2
20260905054501 64 143 0.0 0.0 0.00 0.00 0.00 88 1007.1
20260905053112 64 143 0.0 0.0 0.00 0.00 0.00 88 1007.1
20260905051559 64 216 0.0 0.0 0.00 0.00 0.00 89 1007.3
20260905050059 63 216 0.0 0.0 0.00 0.00 0.00 89 1007.1
20260905044557 64 216 0.0 0.0 0.00 0.00 0.00 88 1007.0
20260905043057 64 216 0.0 0.0 0.00 0.00 0.00 87 1007.2
20260905041553 65 157 0.0 0.0 0.00 0.00 0.00 86 1007.2
20260905040050 65 157 0.0 1.0 0.00 0.00 0.00 85 1007.0
20260905034551 66 103 0.0 0.0 0.00 0.00 0.00 84 1007.2
20260905033054 66 103 0.0 1.0 0.00 0.00 0.00 83 1007.2
20260905031553 66 118 0.0 1.0 0.00 0.00 0.00 85 1007.2
20260905030051 65 266 0.0 0.0 0.00 0.00 0.00 85 1007.2
20260905024617 65 266 0.0 0.0 0.00 0.00 0.00 85 1007.3
20260905023051 65 266 0.0 0.0 0.00 0.00 0.00 85 1007.3
20260905021547 66 55 0.0 0.0 0.00 0.00 0.00 85 1007.7
20260905020050 66 55 0.0 0.0 0.00 0.00 0.00 85 1007.6
20260905014546 66 55 0.0 0.0 0.00 0.00 0.00 84 1007.8
20260905013048 66 55 0.0 0.0 0.00 0.00 0.00 85 1007.7
20260905011554 66 55 0.0 0.0 0.00 0.00 0.00 86 1007.7
20260905010045 66 55 0.0 0.0 0.00 0.00 0.00 86 1007.8
20260905004551 66 55 0.0 0.0 0.00 0.00 0.00 85 1007.7
20260905003043 67 55 0.0 0.0 0.00 0.00 0.00 83 1007.8
20260905001543 68 55 0.0 0.0 0.00 0.00 0.00 82 1007.7
20260905000042 69 55 0.0 0.0 0.00 0.00 0.00 81 1007.6
20260904234548 69 55 0.0 0.0 0.00 0.00 0.00 79 1007.3
20260904233055 70 55 0.0 0.0 0.00 0.00 0.00 77 1007.1
20260904231541 70 55 0.0 0.0 0.00 0.00 0.00 76 1006.9
20260904230040 71 55 0.0 0.0 0.00 0.00 0.00 74 1007.0
20260904224545 73 55 0.0 0.0 0.00 0.00 0.00 74 1006.9
20260904223042 74 55 0.0 0.0 0.00 0.00 0.00 74 1006.9
20260904221538 75 55 0.0 0.0 0.00 0.00 0.00 73 1006.8
20260904220038 77 55 0.0 0.0 0.00 0.00 0.00 68 1006.7
20260904214543 79 54 0.0 0.0 0.00 0.00 0.00 64 1006.7
20260904213037 80 312 0.0 3.0 0.00 0.00 0.00 68 1006.7
20260904211535 80 243 0.0 0.0 0.00 0.00 0.00 68 1006.8
20260904210041 78 36 0.0 1.0 0.00 0.00 0.00 63 1006.7
20260904204534 80 11 0.0 2.0 0.00 0.00 0.00 63 1006.6
20260904203034 80 57 0.0 2.0 0.00 0.00 0.00 61 1006.7
20260904201533 81 299 0.0 4.0 0.00 0.00 0.00 63 1006.8
20260904194541 84 321 0.0 3.0 0.00 0.00 0.00 55 1006.4
20260904193045 84 310 0.0 2.0 0.00 0.00 0.00 54 1006.3
20260904191536 85 49 0.0 2.0 0.00 0.00 0.00 56 1006.2
20260904190031 84 158 0.0 2.0 0.00 0.00 0.00 59 1006.5
20260904184529 84 210 0.0 3.0 0.00 0.00 0.00 61 1006.7
20260904183028 83 39 0.0 4.0 0.00 0.00 0.00 61 1006.7
20260904181627 0 304 0.0 0.0 0.00 0.00 0.00 1006.7
20260904174524 83 171 0.0 2.0 0.00 0.00 0.00 62 1006.8
20260904173018 82 30 1.0 5.0 0.00 0.00 0.00 62 1006.8
20260904171514 82 63 0.0 2.0 0.00 0.00 0.00 64 1007.2
20260904170013 82 32 0.0 4.0 0.00 0.00 0.00 65 1007.3
20260904164511 82 319 0.0 3.0 0.00 0.00 0.00 68 1007.3
20260904163009 81 23 0.0 2.0 0.00 0.00 0.00 71 1007.3
20260904161505 81 18 0.0 2.0 0.00 0.00 0.00 72 1007.4
20260904160002 80 47 0.0 1.0 0.00 0.00 0.00 72 1007.6
20260904154600 79 342 0.0 2.0 0.00 0.00 0.00 74 1007.7
20260904153105 78 44 0.0 2.0 0.00 0.00 0.00 78 1007.9
20260904151551 76 8 0.0 2.0 0.00 0.00 0.00 83 1008.0
20260904150049 75 31 0.0 2.0 0.00 0.00 0.00 88 1008.1
20260904144545 74 295 0.0 2.0 0.00 0.00 0.00 91 1008.2
20260904143041 72 103 0.0 1.0 0.00 0.00 0.00 94 1008.2
20260904141553 71 12 0.0 2.0 0.00 0.00 0.00 96 1008.4
20260904140037 70 229 0.0 1.0 0.00 0.00 0.00 98 1008.4
20260904134531 68 238 0.0 3.0 0.00 0.00 0.00 99 1008.4
20260904133030 67 135 0.0 2.0 0.00 0.00 0.00 99 1008.5
20260904131526 67 238 0.0 1.0 0.00 0.00 0.00 99 1008.7
20260904130025 66 161 0.0 0.0 0.00 0.00 0.00 99 1008.6
20260904124523 66 176 0.0 0.0 0.00 0.01 0.00 99 1008.7
20260904123022 65 210 0.0 1.0 0.00 0.01 0.00 99 1008.7
20260904121521 65 211 0.0 0.0 0.00 0.01 0.00 99 1008.7
20260904120019 65 233 0.0 1.0 0.00 0.01 0.00 99 1008.8
20260904114535 65 194 0.0 0.0 0.00 0.03 0.00 99 1008.7
20260904113018 64 231 0.0 1.0 0.00 0.03 0.00 99 1008.6
20260904111517 64 222 0.0 0.0 0.00 0.03 0.00 99 1008.6
20260904110023 64 222 0.0 0.0 0.00 0.03 0.00 99 1008.5
20260904104516 64 222 0.0 0.0 0.00 0.12 0.00 99 1008.4
20260904103016 64 222 0.0 0.0 0.00 0.12 0.00 99 1008.3
20260904101519 64 222 0.0 0.0 0.00 0.12 0.00 99 1008.3
20260904100015 64 222 0.0 0.0 0.00 0.12 0.00 99 1008.2
20260904094514 64 222 0.0 0.0 0.00 0.20 0.00 99 1008.3